Location: Sternwarte Stuttgart
(48.7670°N, 9.1830°E)
Time: 16:31:58
(UTC+02:00)

Cosmos 2297 Rocket - Pass Details

Date: 24 January 2019
Orbit: 840 x 843 km, 71.0° (Epoch: 19 April)

Event Time Altitude Azimuth Distance (km) Brightness Sun altitude
Exits shadow 07:04:41 - 329° (NNW) 3,024 4.6 -9.7°
Reaches altitude 10° 07:06:09 10° 327° (NNW) 2,466 4.2 -9.5°
Maximum altitude 07:11:44 65° 247° (WSW) 924 2.2 -8.6°
Drops below altitude 10° 07:17:18 10° 167° (SSE) 2,450 5.1 -7.7°
Sets 07:19:44 0° 164° (SSE) 3,381 5.9 -7.4°
